| time (UTC) | temp F | wind direction | speed MPH | gust MPH | rain 1hr in | rain 24hr in | rain mn in | humidity % | barometer mb |
| 20260904191550 | 77 | 10 | 4.0 | 13.0 | 0.00 | 0.01 | 0.01 | 63 | 1013.4 |
| 20260904190044 | 77 | 0 | 3.0 | 11.0 | 0.00 | 0.01 | 0.01 | 62 | 1013.5 |
| 20260904184545 | 77 | 320 | 2.0 | 10.0 | 0.00 | 0.01 | 0.01 | 64 | 1013.6 |
| 20260904183040 | 78 | 265 | 2.0 | 12.0 | 0.00 | 0.01 | 0.01 | 64 | 1013.7 |
| 20260904181539 | 78 | 336 | 2.0 | 8.0 | 0.00 | 0.01 | 0.01 | 61 | 1013.8 |
| 20260904181022 | 79 | 344 | 3.0 | 8.0 | 0.00 | 0.01 | 0.01 | 65 | 1013.7 |
| 20260904180048 | 78 | 271 | 3.0 | 9.0 | 0.00 | 0.01 | 0.01 | 63 | 1013.8 |
| 20260904174542 | 78 | 243 | 2.0 | 8.0 | 0.00 | 0.01 | 0.01 | 63 | 1013.9 |
| 20260904173050 | 77 | 46 | 1.0 | 11.0 | 0.00 | 0.01 | 0.01 | 64 | 1013.7 |
| 20260904171546 | 77 | 0 | 1.0 | 9.0 | 0.00 | 0.01 | 0.01 | 68 | 1014.0 |
| 20260904170047 | 77 | 0 | 3.0 | 12.0 | 0.00 | 0.01 | 0.01 | 65 | 1014.0 |
| 20260904164538 | 77 | 1 | 4.0 | 17.0 | 0.00 | 0.01 | 0.01 | 66 | 1013.9 |
| 20260904164019 | 76 | 255 | 3.0 | 9.0 | 0.00 | 0.01 | 0.01 | 68 | 1014.0 |
| 20260904161539 | 76 | 250 | 4.0 | 12.0 | 0.00 | 0.01 | 0.01 | 67 | 1013.8 |
| 20260904160524 | 76 | 255 | 2.0 | 9.0 | 0.00 | 0.01 | 0.01 | 69 | 1014.0 |
| 20260904160042 | 76 | 279 | 1.0 | 8.0 | 0.00 | 0.01 | 0.01 | 71 | 1013.9 |
| 20260904155519 | 76 | 337 | 2.0 | 8.0 | 0.00 | 0.01 | 0.01 | 68 | 1013.9 |
| 20260904155020 | 75 | 287 | 2.0 | 8.0 | 0.00 | 0.01 | 0.01 | 69 | 1013.9 |
| 20260904154538 | 75 | 0 | 2.0 | 8.0 | 0.00 | 0.01 | 0.01 | 71 | 1013.9 |
| 20260904154018 | 75 | 300 | 2.0 | 6.0 | 0.00 | 0.01 | 0.01 | 72 | 1014.1 |
| 20260904153520 | 75 | 239 | 1.0 | 6.0 | 0.00 | 0.01 | 0.01 | 71 | 1014.0 |
| 20260904153041 | 75 | 353 | 1.0 | 7.0 | 0.00 | 0.01 | 0.01 | 73 | 1014.0 |
| 20260904152520 | 76 | 213 | 1.0 | 7.0 | 0.00 | 0.01 | 0.01 | 70 | 1014.1 |
| 20260904152024 | 76 | 341 | 2.0 | 7.0 | 0.00 | 0.01 | 0.01 | 71 | 1014.1 |
| 20260904151542 | 76 | 0 | 1.0 | 9.0 | 0.00 | 0.01 | 0.01 | 72 | 1014.1 |
| 20260904151018 | 75 | 352 | 2.0 | 9.0 | 0.00 | 0.01 | 0.01 | 74 | 1014.3 |
| 20260904150520 | 75 | 309 | 1.0 | 8.0 | 0.00 | 0.01 | 0.01 | 76 | 1014.2 |
| 20260904150038 | 75 | 265 | 2.0 | 8.0 | 0.00 | 0.01 | 0.01 | 74 | 1014.3 |
| 20260904145519 | 75 | 352 | 0.0 | 8.0 | 0.00 | 0.01 | 0.01 | 76 | 1014.2 |
| 20260904145019 | 74 | 0 | 1.0 | 8.0 | 0.00 | 0.01 | 0.01 | 77 | 1014.1 |
| 20260904144556 | 75 | 0 | 1.0 | 7.0 | 0.00 | 0.01 | 0.01 | 78 | 1014.1 |
| 20260904143054 | 73 | 265 | 1.0 | 5.0 | 0.00 | 0.01 | 0.01 | 80 | 1014.3 |
| 20260904142521 | 72 | 0 | 1.0 | 8.0 | 0.00 | 0.01 | 0.01 | 82 | 1014.3 |
| 20260904142020 | 72 | 358 | 2.0 | 8.0 | 0.00 | 0.01 | 0.01 | 82 | 1014.5 |
| 20260904141538 | 72 | 6 | 0.0 | 4.0 | 0.00 | 0.01 | 0.01 | 86 | 1014.2 |
| 20260904141018 | 71 | 344 | 0.0 | 5.0 | 0.00 | 0.01 | 0.01 | 87 | 1014.3 |
| 20260904140521 | 71 | 0 | 1.0 | 5.0 | 0.00 | 0.01 | 0.01 | 87 | 1014.4 |
| 20260904140039 | 71 | 282 | 0.0 | 4.0 | 0.00 | 0.01 | 0.01 | 89 | 1014.4 |
| 20260904133517 | 68 | 30 | 1.0 | 3.0 | 0.00 | 0.01 | 0.01 | 98 | 1014.3 |
| 20260904133040 | 68 | 0 | 0.0 | 0.0 | 0.00 | 0.01 | 0.01 | 98 | 1014.0 |
| 20260904131548 | 67 | 0 | 0.0 | 1.0 | 0.00 | 0.01 | 0.01 | 99 | 1014.0 |
| 20260904130042 | 66 | 0 | 0.0 | 1.0 | 0.00 | 0.01 | 0.01 | 99 | 1014.3 |
| 20260904124539 | 65 | 0 | 0.0 | 2.0 | 0.00 | 0.01 | 0.01 | 99 | 1014.3 |
| 20260904123527 | 64 | 0 | 0.0 | 1.0 | 0.00 | 0.01 | 0.01 | 99 | 1014.3 |
| 20260904123046 | 64 | 0 | 0.0 | 1.0 | 0.00 | 0.01 | 0.01 | 99 | 1014.4 |
| 20260904122525 | 64 | 0 | 0.0 | 1.0 | 0.00 | 0.01 | 0.01 | 99 | 1014.5 |
| 20260904121545 | 63 | 0 | 0.0 | 1.0 | 0.00 | 0.01 | 0.01 | 99 | 1014.1 |
| 20260904120043 | 62 | 0 | 0.0 | 2.0 | 0.00 | 0.01 | 0.01 | 99 | 1014.3 |
| 20260904114541 | 62 | 0 | 0.0 | 0.0 | 0.00 | 0.01 | 0.01 | 99 | 1014.3 |
| 20260904113040 | 61 | 0 | 0.0 | 0.0 | 0.00 | 0.01 | 0.01 | 99 | 1014.3 |
| 20260904112520 | 61 | 0 | 0.0 | 0.0 | 0.00 | 0.01 | 0.01 | 99 | 1014.2 |
| 20260904112020 | 61 | 0 | 0.0 | 0.0 | 0.00 | 0.01 | 0.01 | 98 | 1014.1 |
| 20260904111546 | 61 | 0 | 0.0 | 0.0 | 0.00 | 0.01 | 0.01 | 98 | 1014.2 |
| 20260904111020 | 61 | 0 | 0.0 | 0.0 | 0.00 | 0.01 | 0.01 | 99 | 1014.0 |
| 20260904110041 | 60 | 0 | 0.0 | 0.0 | 0.00 | 0.01 | 0.01 | 98 | 1013.9 |
| 20260904104541 | 60 | 0 | 0.0 | 0.0 | 0.00 | 0.01 | 0.01 | 98 | 1013.8 |
| 20260904103521 | 60 | 0 | 0.0 | 0.0 | 0.00 | 0.01 | 0.01 | 98 | 1013.7 |
| 20260904103045 | 61 | 0 | 0.0 | 0.0 | 0.00 | 0.01 | 0.01 | 98 | 1013.6 |
| 20260904101541 | 61 | 0 | 0.0 | 0.0 | 0.00 | 0.01 | 0.01 | 98 | 1013.5 |
| 20260904100039 | 61 | 0 | 0.0 | 0.0 | 0.00 | 0.01 | 0.01 | 98 | 1013.5 |
| 20260904094540 | 61 | 0 | 0.0 | 0.0 | 0.00 | 0.01 | 0.01 | 98 | 1013.3 |
| 20260904094020 | 61 | 0 | 0.0 | 1.0 | 0.00 | 0.01 | 0.01 | 98 | 1013.3 |
| 20260904093521 | 61 | 0 | 0.0 | 1.0 | 0.00 | 0.01 | 0.01 | 98 | 1013.3 |
| 20260904093048 | 61 | 0 | 0.0 | 0.0 | 0.00 | 0.01 | 0.01 | 98 | 1013.3 |
| 20260904091550 | 61 | 0 | 0.0 | 0.0 | 0.00 | 0.01 | 0.01 | 98 | 1013.1 |
| 20260904090041 | 62 | 0 | 0.0 | 0.0 | 0.00 | 0.01 | 0.01 | 98 | 1013.2 |
| 20260904085024 | 62 | 0 | 0.0 | 0.0 | 0.00 | 0.01 | 0.01 | 98 | 1012.9 |
| 20260904084539 | 62 | 0 | 0.0 | 0.0 | 0.00 | 0.01 | 0.01 | 98 | 1012.9 |
| 20260904084020 | 62 | 0 | 0.0 | 0.0 | 0.00 | 0.01 | 0.01 | 98 | 1012.9 |
| 20260904083522 | 62 | 0 | 0.0 | 0.0 | 0.00 | 0.01 | 0.01 | 97 | 1012.9 |
| 20260904083041 | 63 | 0 | 0.0 | 0.0 | 0.00 | 0.01 | 0.01 | 97 | 1012.8 |
| 20260904081539 | 63 | 0 | 0.0 | 0.0 | 0.00 | 0.01 | 0.01 | 98 | 1012.8 |
| 20260904081021 | 63 | 0 | 0.0 | 0.0 | 0.00 | 0.01 | 0.01 | 98 | 1012.7 |
| 20260904080521 | 63 | 0 | 0.0 | 0.0 | 0.00 | 0.01 | 0.01 | 97 | 1012.7 |
| 20260904080038 | 63 | 0 | 0.0 | 0.0 | 0.00 | 0.01 | 0.01 | 97 | 1012.7 |
| 20260904075521 | 64 | 0 | 0.0 | 0.0 | 0.00 | 0.01 | 0.01 | 98 | 1012.7 |
| 20260904074558 | 64 | 0 | 0.0 | 0.0 | 0.01 | 0.01 | 0.01 | 98 | 1012.7 |
| 20260904073557 | 64 | 0 | 0.0 | 0.0 | 0.01 | 0.01 | 0.01 | 98 | 1012.5 |
| 20260904073040 | 64 | 0 | 0.0 | 0.0 | 0.01 | 0.01 | 0.01 | 98 | 1012.6 |
| 20260904071558 | 64 | 0 | 0.0 | 0.0 | 0.01 | 0.01 | 0.01 | 98 | 1012.5 |
| 20260904070518 | 64 | 0 | 0.0 | 0.0 | 0.01 | 0.01 | 0.01 | 97 | 1012.6 |
| 20260904070051 | 64 | 0 | 0.0 | 0.0 | 0.01 | 0.01 | 0.01 | 97 | 1012.5 |
| 20260904065520 | 64 | 0 | 0.0 | 0.0 | 0.01 | 0.01 | 0.01 | 97 | 1012.5 |
| 20260904065021 | 64 | 0 | 0.0 | 0.0 | 0.00 | 0.00 | 0.00 | 98 | 1012.6 |
| 20260904064549 | 64 | 0 | 0.0 | 0.0 | 0.00 | 0.00 | 0.00 | 97 | 1012.6 |
| 20260904063049 | 64 | 0 | 0.0 | 0.0 | 0.00 | 0.00 | 0.00 | 97 | 1012.6 |
| 20260904061538 | 65 | 0 | 0.0 | 2.0 | 0.00 | 0.00 | 0.00 | 97 | 1012.7 |
| 20260904060521 | 65 | 0 | 0.0 | 0.0 | 0.00 | 0.00 | 0.00 | 97 | 1012.9 |
| 20260904060037 | 66 | 0 | 0.0 | 0.0 | 0.00 | 0.00 | 0.00 | 97 | 1012.9 |
| 20260904055524 | 66 | 0 | 0.0 | 0.0 | 0.00 | 0.00 | 0.00 | 97 | 1013.0 |
| 20260904054546 | 66 | 0 | 0.0 | 1.0 | 0.00 | 0.00 | 0.00 | 97 | 1013.1 |
| 20260904053050 | 66 | 0 | 0.0 | 0.0 | 0.00 | 0.00 | 0.00 | 97 | 1013.2 |
| 20260904052018 | 66 | 0 | 0.0 | 0.0 | 0.00 | 0.00 | 0.00 | 97 | 1013.3 |
| 20260904051540 | 66 | 0 | 0.0 | 0.0 | 0.00 | 0.00 | 0.00 | 97 | 1013.3 |
| 20260904051021 | 66 | 0 | 0.0 | 0.0 | 0.00 | 0.00 | 0.00 | 97 | 1013.4 |
| 20260904050523 | 66 | 0 | 0.0 | 0.0 | 0.00 | 0.00 | 0.00 | 97 | 1013.4 |
| 20260904050042 | 66 | 0 | 0.0 | 0.0 | 0.00 | 0.00 | 0.00 | 97 | 1013.4 |
| 20260904044542 | 66 | 0 | 0.0 | 0.0 | 0.00 | 0.00 | 0.00 | 97 | 1013.5 |
| 20260904043045 | 66 | 0 | 0.0 | 0.0 | 0.00 | 0.00 | 0.00 | 97 | 1013.4 |
| 20260904041542 | 66 | 0 | 0.0 | 0.0 | 0.00 | 0.00 | 0.00 | 97 | 1013.2 |
| 20260904041020 | 66 | 0 | 0.0 | 1.0 | 0.00 | 0.00 | 0.00 | 97 | 1013.2 |
| 20260904040523 | 66 | 0 | 0.0 | 1.0 | 0.00 | 0.00 | 0.00 | 97 | 1013.2 |
| 20260904040039 | 66 | 0 | 0.0 | 0.0 | 0.00 | 0.00 | 0.00 | 97 | 1013.1 |
| 20260904035521 | 66 | 0 | 0.0 | 0.0 | 0.00 | 0.00 | 0.00 | 97 | 1013.2 |
| 20260904034547 | 66 | 0 | 0.0 | 0.0 | 0.00 | 0.00 | 0.00 | 97 | 1013.3 |
| 20260904033051 | 66 | 0 | 0.0 | 0.0 | 0.00 | 0.00 | 0.00 | 97 | 1013.2 |
| 20260904031553 | 66 | 0 | 0.0 | 0.0 | 0.00 | 0.00 | 0.00 | 97 | 1013.4 |
| 20260904030040 | 66 | 0 | 0.0 | 0.0 | 0.00 | 0.00 | 0.00 | 96 | 1013.4 |
| 20260904025521 | 66 | 0 | 0.0 | 0.0 | 0.00 | 0.09 | 0.00 | 96 | 1013.6 |
| 20260904025021 | 66 | 0 | 0.0 | 0.0 | 0.00 | 0.09 | 0.00 | 96 | 1013.5 |
| 20260904024539 | 66 | 0 | 0.0 | 0.0 | 0.00 | 0.09 | 0.00 | 96 | 1013.6 |
| 20260904023041 | 67 | 0 | 0.0 | 0.0 | 0.00 | 0.09 | 0.00 | 96 | 1013.4 |
| 20260904021548 | 67 | 0 | 0.0 | 0.0 | 0.00 | 0.09 | 0.00 | 96 | 1013.8 |
| 20260904020042 | 67 | 0 | 0.0 | 0.0 | 0.00 | 0.09 | 0.00 | 96 | 1013.9 |
| 20260904015520 | 67 | 0 | 0.0 | 0.0 | 0.00 | 0.14 | 0.00 | 96 | 1013.9 |
| 20260904015020 | 67 | 0 | 0.0 | 0.0 | 0.00 | 0.14 | 0.00 | 96 | 1014.0 |
| 20260904014544 | 67 | 0 | 0.0 | 0.0 | 0.00 | 0.14 | 0.00 | 96 | 1013.8 |
| 20260904014020 | 67 | 0 | 0.0 | 0.0 | 0.00 | 0.14 | 0.00 | 96 | 1013.8 |
| 20260904013043 | 67 | 0 | 0.0 | 0.0 | 0.00 | 0.14 | 0.00 | 95 | 1013.9 |
| 20260904011541 | 68 | 0 | 0.0 | 0.0 | 0.00 | 0.14 | 0.00 | 95 | 1013.9 |
| 20260904010521 | 68 | 0 | 0.0 | 0.0 | 0.00 | 0.14 | 0.00 | 95 | 1013.9 |
| 20260904010040 | 68 | 0 | 0.0 | 0.0 | 0.00 | 0.14 | 0.00 | 95 | 1013.9 |
| 20260904005520 | 68 | 0 | 0.0 | 0.0 | 0.00 | 0.15 | 0.00 | 95 | 1013.9 |
| 20260904005104 | 68 | 0 | 0.0 | 0.0 | 0.00 | 0.15 | 0.00 | 94 | 1014.1 |
| 20260904004541 | 68 | 0 | 0.0 | 0.0 | 0.00 | 0.15 | 0.00 | 94 | 1013.9 |
| 20260904003040 | 69 | 0 | 0.0 | 0.0 | 0.00 | 0.15 | 0.00 | 94 | 1013.7 |
| 20260904002525 | 69 | 0 | 0.0 | 0.0 | 0.00 | 0.15 | 0.00 | 94 | 1013.6 |
| 20260904002020 | 69 | 0 | 0.0 | 0.0 | 0.00 | 0.15 | 0.00 | 94 | 1013.7 |
| 20260904001539 | 69 | 0 | 0.0 | 0.0 | 0.00 | 0.15 | 0.00 | 94 | 1013.6 |
| 20260904001020 | 69 | 0 | 0.0 | 0.0 | 0.00 | 0.15 | 0.00 | 93 | 1013.5 |
| 20260904000521 | 70 | 0 | 0.0 | 0.0 | 0.00 | 0.15 | 0.00 | 93 | 1013.5 |
| 20260904000044 | 70 | 0 | 0.0 | 1.0 | 0.00 | 0.15 | 0.00 | 93 | 1013.5 |
| 20260903234541 | 71 | 0 | 0.0 | 0.0 | 0.00 | 0.15 | 0.00 | 92 | 1013.4 |
| 20260903233045 | 72 | 0 | 0.0 | 0.0 | 0.00 | 0.15 | 0.00 | 91 | 1013.3 |
| 20260903232019 | 73 | 0 | 0.0 | 0.0 | 0.00 | 0.15 | 0.00 | 91 | 1013.1 |
| 20260903231539 | 73 | 0 | 0.0 | 1.0 | 0.00 | 0.15 | 0.00 | 90 | 1013.3 |
| 20260903231020 | 73 | 0 | 0.0 | 1.0 | 0.00 | 0.15 | 0.00 | 89 | 1013.1 |
| 20260903230520 | 73 | 0 | 0.0 | 1.0 | 0.00 | 0.15 | 0.00 | 88 | 1013.3 |
| 20260903230047 | 74 | 0 | 0.0 | 0.0 | 0.00 | 0.15 | 0.00 | 88 | 1013.1 |
| 20260903224542 | 75 | 0 | 0.0 | 0.0 | 0.00 | 0.15 | 0.00 | 84 | 1013.0 |
| 20260903223039 | 77 | 0 | 0.0 | 0.0 | 0.00 | 0.15 | 0.00 | 79 | 1013.0 |
| 20260903222520 | 78 | 0 | 0.0 | 1.0 | 0.00 | 0.15 | 0.00 | 80 | 1013.2 |
| 20260903222020 | 78 | 0 | 0.0 | 1.0 | 0.00 | 0.15 | 0.00 | 78 | 1013.1 |
| 20260903221550 | 79 | 0 | 0.0 | 1.0 | 0.00 | 0.15 | 0.00 | 76 | 1013.0 |
| 20260903220040 | 79 | 0 | 0.0 | 2.0 | 0.00 | 0.15 | 0.00 | 71 | 1012.9 |
| 20260903214538 | 80 | 30 | 1.0 | 3.0 | 0.00 | 0.15 | 0.00 | 69 | 1012.9 |
| 20260903213520 | 80 | 0 | 0.0 | 4.0 | 0.00 | 0.15 | 0.00 | 73 | 1012.8 |
| 20260903213039 | 80 | 30 | 0.0 | 4.0 | 0.00 | 0.15 | 0.00 | 71 | 1012.8 |
| 20260903212522 | 80 | 28 | 0.0 | 3.0 | 0.00 | 0.15 | 0.00 | 71 | 1012.8 |
| 20260903212021 | 80 | 0 | 0.0 | 3.0 | 0.00 | 0.15 | 0.00 | 68 | 1012.9 |
| 20260903211548 | 80 | 0 | 0.0 | 3.0 | 0.00 | 0.15 | 0.00 | 70 | 1012.9 |
| 20260903210042 | 79 | 0 | 1.0 | 4.0 | 0.00 | 0.15 | 0.00 | 71 | 1013.2 |
| 20260903205521 | 79 | 265 | 1.0 | 4.0 | 0.00 | 0.15 | 0.00 | 72 | 1013.1 |
| 20260903204540 | 80 | 0 | 1.0 | 6.0 | 0.00 | 0.15 | 0.00 | 72 | 1013.2 |
| 20260903204024 | 80 | 319 | 0.0 | 5.0 | 0.00 | 0.15 | 0.00 | 72 | 1013.2 |
| 20260903203523 | 80 | 277 | 1.0 | 5.0 | 0.00 | 0.15 | 0.00 | 72 | 1013.2 |
| 20260903203048 | 79 | 290 | 1.0 | 5.0 | 0.00 | 0.15 | 0.00 | 74 | 1013.2 |
| 20260903202520 | 79 | 27 | 0.0 | 3.0 | 0.00 | 0.15 | 0.00 | 75 | 1013.2 |
| 20260903202026 | 79 | 0 | 0.0 | 3.0 | 0.00 | 0.15 | 0.00 | 75 | 1013.1 |
| 20260903201539 | 79 | 0 | 0.0 | 4.0 | 0.00 | 0.15 | 0.00 | 74 | 1013.2 |
| 20260903200047 | 80 | 296 | 1.0 | 5.0 | 0.00 | 0.15 | 0.00 | 69 | 1013.1 |
| 20260903194543 | 80 | 0 | 0.0 | 3.0 | 0.00 | 0.15 | 0.00 | 73 | 1013.4 |
| 20260903193520 | 80 | 265 | 1.0 | 4.0 | 0.00 | 0.15 | 0.00 | 68 | 1013.3 |
| 20260903193039 | 80 | 0 | 1.0 | 6.0 | 0.00 | 0.15 | 0.00 | 71 | 1013.4 |